Location: Brookview Estates
(36.0476°N, 86.6931°W)
Time: 09:14:03
(UTC+00:00)

Timation 2 Rocket - Pass Details

Date: 30 March 2020
Orbit: 905 x 1076 km, 70.0° (Epoch: 01 June)

Event Time Altitude Azimuth Distance (km) Brightness Sun altitude
Exits shadow 09:27:14 56° 260° (W) 1,228 4.1 -25.6°
Maximum altitude 09:28:10 62° 296° (WNW) 1,176 4.2 -25.5°
Drops below altitude 10° 09:34:56 10° 16° (NNE) 2,906 7.0 -24.2°
Sets 09:37:39 0° 20° (NNE) 3,872 7.8 -23.7°
